Location: Coupvray
(48.8929°N, 2.7967°E)
Time: 08:49:57
(UTC+00:00)

ADEOS II - Pass Details

Date: 14 July 2020
Orbit: 799 x 801 km, 98.5° (Epoch: 14 August)

Event Time Altitude Azimuth Distance (km) Brightness Sun altitude
Rises 01:17:08 0° 23° (NNE) 3,322 7.1 -17.1°
Reaches altitude 10° 01:19:51 10° 36° (NE) 2,387 5.7 -17.0°
Maximum altitude 01:24:16 27° 93° (E) 1,511 3.7 -16.7°
Enters shadow 01:28:38 10° 150° (SSE) 2,361 4.2 -16.4°
